Location: Arroyo de San Miguel
(40.9167°N, 4.6667°W)
Time: 14:39:57
(UTC+00:00)

CZ-4B R/B - Pass Details

Date: 19 May 2025
Orbit: 807 x 881 km, 98.9° (Epoch: 17 June)

Event Time Altitude Azimuth Distance (km) Brightness Sun altitude
Exits shadow 21:02:14 - 186° (S) 2,971 5.7 -14.4°
Reaches altitude 10° 21:03:32 10° 190° (S) 2,488 5.3 -14.6°
Maximum altitude 21:08:46 43° 261° (W) 1,173 4.2 -15.3°
Drops below altitude 10° 21:13:57 10° 332° (NNW) 2,458 6.8 -16.0°
Sets 21:16:25 0° 340° (NNW) 3,385 7.6 -16.3°
